Hourly Weather Bolshie Lipyagi

Today, 4 August, Wednesday

Time Temperature Precipitation Wind Pressure Humidity
00:00 +21°C° 0 mm 1 mps 746 mmHg 87%
01:00 +20°C° 1.5 mm 1 mps 747 mmHg 90%
02:00 +20°C° 1.5 mm 1 mps 747 mmHg 93%
03:00 +19°C° 1.5 mm 2 mps 747 mmHg 96%
04:00 +19°C° 3.4 mm 2 mps 747 mmHg 96%
05:00 +19°C° 3.4 mm 2 mps 747 mmHg 95%
06:00 +19°C° 3.4 mm 2 mps 748 mmHg 95%
07:00 +20°C° 0.3 mm 2 mps 748 mmHg 88%
08:00 +22°C° 0.3 mm 1 mps 748 mmHg 81%
09:00 +24°C° 0.3 mm 1 mps 748 mmHg 74%
10:00 +25°C° 0.2 mm 2 mps 748 mmHg 69%
11:00 +25°C° 0.2 mm 3 mps 748 mmHg 64%
12:00 +26°C° 0.2 mm 4 mps 748 mmHg 58%
13:00 +27°C° 0.2 mm 4 mps 748 mmHg 56%
14:00 +27°C° 0.2 mm 4 mps 748 mmHg 53%
15:00 +27°C° 0.2 mm 4 mps 748 mmHg 50%
16:00 +26°C° 0 mm 4 mps 748 mmHg 53%
17:00 +25°C° 0 mm 3 mps 749 mmHg 56%
18:00 +24°C° 0 mm 3 mps 749 mmHg 58%
19:00 +22°C° 0 mm 3 mps 749 mmHg 58%
20:00 +22°C° 0 mm 3 mps 749 mmHg 58%
21:00 +21°C° 0 mm 3 mps 750 mmHg 57%
22:00 +20°C° 0 mm 3 mps 750 mmHg 59%
23:00 +19°C° 0 mm 3 mps 750 mmHg 61%

Tomorrow, 5 August, Thursday

Time Temperature Precipitation Wind Pressure Humidity
00:00 +18°C° 0 mm 2 mps 750 mmHg 62%
01:00 +18°C° 0 mm 2 mps 750 mmHg 63%
02:00 +17°C° 0 mm 2 mps 750 mmHg 64%
03:00 +17°C° 0 mm 2 mps 750 mmHg 64%
04:00 +17°C° 0 mm 2 mps 751 mmHg 66%
05:00 +17°C° 0 mm 2 mps 751 mmHg 67%
06:00 +17°C° 0 mm 2 mps 751 mmHg 69%
07:00 +19°C° 0 mm 2 mps 751 mmHg 63%
08:00 +21°C° 0 mm 2 mps 751 mmHg 57%
09:00 +24°C° 0 mm 2 mps 751 mmHg 50%
10:00 +25°C° 0 mm 2 mps 751 mmHg 46%
11:00 +26°C° 0 mm 2 mps 751 mmHg 42%
12:00 +27°C° 0 mm 2 mps 751 mmHg 38%
13:00 +27°C° 0 mm 2 mps 751 mmHg 37%
14:00 +28°C° 0 mm 2 mps 751 mmHg 36%
15:00 +28°C° 0 mm 2 mps 751 mmHg 35%
16:00 +28°C° 0 mm 2 mps 751 mmHg 38%
17:00 +27°C° 0 mm 1 mps 751 mmHg 42%
18:00 +27°C° 0 mm 1 mps 751 mmHg 46%
19:00 +25°C° 0 mm 2 mps 751 mmHg 48%
20:00 +23°C° 0 mm 2 mps 750 mmHg 51%
21:00 +20°C° 0 mm 2 mps 750 mmHg 53%
22:00 +20°C° 0 mm 3 mps 750 mmHg 53%
23:00 +20°C° 0 mm 3 mps 750 mmHg 53%

Day after tomorrow, 6 August, Friday

Time Temperature Precipitation Wind Pressure Humidity
00:00 +19°C° 0 mm 3 mps 750 mmHg 54%
01:00 +19°C° 0 mm 3 mps 750 mmHg 55%
02:00 +18°C° 0 mm 3 mps 750 mmHg 57%
03:00 +17°C° 0 mm 3 mps 750 mmHg 58%
04:00 +18°C° 0 mm 3 mps 750 mmHg 60%
05:00 +18°C° 0 mm 3 mps 750 mmHg 62%
06:00 +18°C° 0 mm 3 mps 750 mmHg 63%
07:00 +20°C° 0 mm 3 mps 750 mmHg 58%
08:00 +22°C° 0 mm 3 mps 750 mmHg 52%
09:00 +25°C° 0 mm 4 mps 750 mmHg 46%
10:00 +27°C° 0 mm 4 mps 750 mmHg 43%
11:00 +28°C° 0 mm 4 mps 750 mmHg 39%
12:00 +30°C° 0 mm 3 mps 750 mmHg 35%
13:00 +30°C° 0 mm 3 mps 749 mmHg 34%
14:00 +30°C° 0 mm 3 mps 749 mmHg 33%
15:00 +31°C° 0 mm 3 mps 749 mmHg 32%
16:00 +30°C° 0 mm 3 mps 749 mmHg 36%
17:00 +30°C° 0 mm 3 mps 748 mmHg 39%
18:00 +29°C° 0 mm 2 mps 748 mmHg 43%
19:00 +27°C° 0 mm 3 mps 748 mmHg 45%
20:00 +26°C° 0 mm 3 mps 748 mmHg 46%
21:00 +24°C° 0 mm 3 mps 748 mmHg 48%
22:00 +22°C° 0 mm 4 mps 748 mmHg 47%
23:00 +22°C° 0 mm 4 mps 748 mmHg 47%

7 August, Saturday

Time Temperature Precipitation Wind Pressure Humidity
00:00 +21°C° 0 mm 4 mps 748 mmHg 47%
01:00 +21°C° 0 mm 4 mps 748 mmHg 47%
02:00 +20°C° 0 mm 4 mps 748 mmHg 48%
03:00 +19°C° 0 mm 4 mps 748 mmHg 48%
04:00 +19°C° 0 mm 3 mps 748 mmHg 49%
05:00 +19°C° 0 mm 3 mps 749 mmHg 51%
06:00 +19°C° 0 mm 3 mps 749 mmHg 52%
07:00 +21°C° 0 mm 4 mps 749 mmHg 47%
08:00 +25°C° 0 mm 4 mps 749 mmHg 42%
09:00 +27°C° 0 mm 5 mps 749 mmHg 38%
10:00 +28°C° 0 mm 4 mps 749 mmHg 35%
11:00 +30°C° 0 mm 4 mps 749 mmHg 32%
12:00 +32°C° 0 mm 4 mps 749 mmHg 29%
13:00 +33°C° 0 mm 4 mps 748 mmHg 28%
14:00 +33°C° 0 mm 4 mps 748 mmHg 27%
15:00 +34°C° 0 mm 4 mps 748 mmHg 25%
16:00 +33°C° 0 mm 4 mps 748 mmHg 29%
17:00 +31°C° 0 mm 3 mps 748 mmHg 33%
18:00 +30°C° 0 mm 3 mps 748 mmHg 37%
19:00 +28°C° 0 mm 3 mps 748 mmHg 38%
20:00 +27°C° 0 mm 3 mps 748 mmHg 38%
21:00 +25°C° 0 mm 3 mps 748 mmHg 39%
22:00 +25°C° 0 mm 3 mps 748 mmHg 38%
23:00 +23°C° 0 mm 4 mps 747 mmHg 38%

8 August, Sunday

Time Temperature Precipitation Wind Pressure Humidity
00:00 +23°C° 0 mm 4 mps 747 mmHg 37%
01:00 +23°C° 0 mm 4 mps 747 mmHg 37%
02:00 +23°C° 0 mm 4 mps 747 mmHg 36%
03:00 +22°C° 0 mm 4 mps 747 mmHg 36%
04:00 +22°C° 0 mm 3 mps 747 mmHg 37%
05:00 +22°C° 0 mm 3 mps 747 mmHg 39%
06:00 +22°C° 0 mm 3 mps 747 mmHg 40%
07:00 +24°C° 0 mm 3 mps 747 mmHg 40%
08:00 +25°C° 0 mm 4 mps 747 mmHg 39%
09:00 +26°C° 0 mm 4 mps 747 mmHg 39%
10:00 +27°C° 0 mm 4 mps 747 mmHg 37%
11:00 +29°C° 0 mm 5 mps 747 mmHg 34%
12:00 +32°C° 0 mm 5 mps 747 mmHg 31%
13:00 +30°C° 0 mm 5 mps 747 mmHg 32%
14:00 +30°C° 0 mm 6 mps 747 mmHg 32%
15:00 +30°C° 0 mm 6 mps 747 mmHg 32%
16:00 +29°C° 0 mm 5 mps 747 mmHg 36%
17:00 +28°C° 0 mm 4 mps 747 mmHg 39%
18:00 +28°C° 0 mm 4 mps 747 mmHg 43%
19:00 +27°C° 0 mm 4 mps 747 mmHg 42%
20:00 +27°C° 0 mm 4 mps 746 mmHg 41%
21:00 +27°C° 0 mm 5 mps 746 mmHg 40%
22:00 +25°C° 0 mm 4 mps 746 mmHg 41%
23:00 +23°C° 0 mm 4 mps 746 mmHg 42%

9 August, Monday

Time Temperature Precipitation Wind Pressure Humidity
00:00 +22°C° 0 mm 3 mps 746 mmHg 44%
01:00 +22°C° 0.1 mm 3 mps 746 mmHg 49%
02:00 +21°C° 0.1 mm 3 mps 746 mmHg 54%
03:00 +20°C° 0.1 mm 2 mps 746 mmHg 59%
04:00 +20°C° 0 mm 2 mps 745 mmHg 63%
05:00 +20°C° 0 mm 2 mps 745 mmHg 66%
06:00 +20°C° 0 mm 2 mps 745 mmHg 70%
07:00 +23°C° 0 mm 2 mps 745 mmHg 66%
08:00 +24°C° 0 mm 3 mps 745 mmHg 63%
09:00 +26°C° 0 mm 4 mps 745 mmHg 59%
10:00 +27°C° 0 mm 4 mps 745 mmHg 55%
11:00 +28°C° 0 mm 5 mps 746 mmHg 51%
12:00 +29°C° 0 mm 5 mps 746 mmHg 48%
13:00 +30°C° 0 mm 5 mps 746 mmHg 46%
14:00 +30°C° 0 mm 6 mps 746 mmHg 45%
15:00 +30°C° 0 mm 6 mps 746 mmHg 43%
16:00 +30°C° 0 mm 6 mps 745 mmHg 46%
17:00 +29°C° 0 mm 6 mps 745 mmHg 50%
18:00 +28°C° 0 mm 6 mps 745 mmHg 53%
19:00 +27°C° 0 mm 6 mps 745 mmHg 57%
20:00 +26°C° 0 mm 6 mps 745 mmHg 61%
21:00 +23°C° 0 mm 5 mps 746 mmHg 65%
22:00 +23°C° 0 mm 5 mps 745 mmHg 69%
23:00 +22°C° 0 mm 4 mps 745 mmHg 73%
Show more

We Need Your Consent

Meteoprog and our Service Providers may store and access personal data such as cookies, device identifiers or other similar technologies on your device and process such data to personalise content and ads, as well as provide social media features and to analyse the traffic.

  • Store and/or access information on your device

    Cookies, device identifiers or other information can be stored or accessed on your device for the purposes indicated above.

  • Personalised ads and content, ad and content measurement, audience insights, and products development

    Ads and content can be personalised based on a profile. More data can be added to better personalise ads and content. Ad and content performance can be measured. Insights about the audience who saw the ads and content can be derived. Such data can be used to develop or improve user’s experience, systems and software.

By clicking ‘I Agree’ you will allow the use of indicated cookies, device identifiers, web beacons or other similar technologies. Your settings can be changed in the browser on your device.

For certain purposes, legitimate interests may be relied on, rather than consent. You can read more about this in our Privacy and Cookie Policy.